| time (UTC) | temp C | wind direction | speed KPH | gust KPH | rain 1hr cm | rain 24hr cm | rain mn cm | humidity % | barometer mb |
| 20260506073520 | 20 | 180 | 9.7 | 17.7 | 0.00 | 0.00 | 0.00 | 56 | 1005.7 |
| 20260506072734 | 20 | 203 | 8.0 | 16.1 | 0.00 | 0.00 | 0.00 | 55 | 1005.9 |
| 20260506071520 | 19 | 203 | 8.0 | 12.9 | 0.00 | 0.00 | 0.00 | 55 | 1005.9 |
| 20260506070520 | 20 | 203 | 6.4 | 14.5 | 0.00 | 0.00 | 0.00 | 54 | 1005.9 |
| 20260506061520 | 20 | 203 | 6.4 | 14.5 | 0.00 | 0.00 | 0.00 | 48 | 1006.6 |
| 20260506060732 | 20 | 203 | 6.4 | 14.5 | 0.00 | 0.00 | 0.00 | 48 | 1006.6 |
| 20260506050520 | 20 | 180 | 4.8 | 11.3 | 0.00 | 0.00 | 0.00 | 45 | 1007.1 |
| 20260506044521 | 21 | 203 | 8.0 | 14.5 | 0.00 | 0.00 | 0.00 | 44 | 1007.1 |
| 20260506043520 | 21 | 180 | 9.7 | 16.1 | 0.00 | 0.00 | 0.00 | 44 | 1007.2 |
| 20260506042731 | 21 | 203 | 9.7 | 17.7 | 0.00 | 0.00 | 0.00 | 45 | 1007.2 |
| 20260506041732 | 21 | 203 | 12.9 | 24.1 | 0.00 | 0.00 | 0.00 | 44 | 1007.1 |
| 20260506040733 | 21 | 203 | 11.3 | 24.1 | 0.00 | 0.00 | 0.00 | 44 | 1007.0 |
| 20260506035519 | 21 | 180 | 11.3 | 20.9 | 0.00 | 0.00 | 0.00 | 43 | 1007.0 |
| 20260506034520 | 21 | 203 | 9.7 | 19.3 | 0.00 | 0.00 | 0.00 | 43 | 1007.1 |
| 20260506033519 | 21 | 203 | 8.0 | 17.7 | 0.00 | 0.00 | 0.00 | 43 | 1007.0 |
| 20260506032520 | 21 | 203 | 8.0 | 14.5 | 0.00 | 0.00 | 0.00 | 44 | 1007.0 |
| 20260506031519 | 21 | 180 | 8.0 | 16.1 | 0.00 | 0.00 | 0.00 | 44 | 1007.0 |
| 20260506030519 | 21 | 203 | 8.0 | 16.1 | 0.00 | 0.00 | 0.00 | 45 | 1007.0 |
| 20260506025519 | 20 | 180 | 4.8 | 11.3 | 0.00 | 0.00 | 0.00 | 47 | 1006.9 |
| 20260506024519 | 20 | 203 | 1.6 | 4.8 | 0.00 | 0.00 | 0.00 | 50 | 1007.0 |
| 20260506023520 | 19 | 203 | 1.6 | 6.4 | 0.00 | 0.00 | 0.00 | 52 | 1007.1 |
| 20260506022520 | 19 | 0.0 | 0.0 | 0.00 | 0.00 | 0.00 | 51 | 1007.0 | |
| 20260506021519 | 19 | 0.0 | 0.0 | 0.00 | 0.00 | 0.00 | 51 | 1007.0 | |
| 20260506020520 | 20 | 0.0 | 0.0 | 0.00 | 0.00 | 0.00 | 50 | 1007.0 | |
| 20260506015520 | 20 | 0.0 | 0.0 | 0.00 | 0.00 | 0.00 | 49 | 1006.9 | |
| 20260506014520 | 20 | 0.0 | 0.0 | 0.00 | 0.00 | 0.00 | 48 | 1006.8 | |
| 20260506013732 | 21 | 0.0 | 0.0 | 0.00 | 0.00 | 0.00 | 47 | 1006.8 | |
| 20260506013159 | 21 | 0.0 | 3.2 | 0.00 | 0.00 | 0.00 | 45 | 1006.7 | |
| 20260506011520 | 22 | 203 | 1.6 | 4.8 | 0.00 | 0.00 | 0.00 | 43 | 1006.5 |
| 20260506010520 | 22 | 0.0 | 3.2 | 0.00 | 0.00 | 0.00 | 42 | 1006.4 | |
| 20260506005520 | 23 | 203 | 1.6 | 4.8 | 0.00 | 0.00 | 0.00 | 41 | 1006.4 |
| 20260506004520 | 23 | 203 | 3.2 | 6.4 | 0.00 | 0.00 | 0.00 | 40 | 1006.4 |
| 20260506003520 | 23 | 203 | 3.2 | 4.8 | 0.00 | 0.00 | 0.00 | 40 | 1006.2 |
| 20260506002520 | 23 | 203 | 3.2 | 8.0 | 0.00 | 0.00 | 0.00 | 39 | 1006.1 |
| 20260506001520 | 24 | 203 | 8.0 | 16.1 | 0.00 | 0.00 | 0.00 | 38 | 1006.1 |
| 20260506000520 | 24 | 203 | 8.0 | 19.3 | 0.00 | 0.00 | 0.00 | 38 | 1005.8 |
| 20260505235519 | 24 | 203 | 6.4 | 12.9 | 0.00 | 0.00 | 0.00 | 39 | 1005.7 |
| 20260505234520 | 24 | 225 | 6.4 | 14.5 | 0.00 | 0.00 | 0.00 | 38 | 1005.8 |
| 20260505233520 | 25 | 180 | 8.0 | 11.3 | 0.00 | 0.00 | 0.00 | 39 | 1005.8 |
| 20260505232520 | 25 | 203 | 9.7 | 19.3 | 0.00 | 0.00 | 0.00 | 39 | 1005.7 |
| 20260505231520 | 25 | 225 | 11.3 | 19.3 | 0.00 | 0.00 | 0.00 | 39 | 1005.7 |
| 20260505230520 | 25 | 180 | 6.4 | 22.5 | 0.00 | 0.00 | 0.00 | 41 | 1005.5 |
| 20260505225520 | 25 | 180 | 9.7 | 24.1 | 0.00 | 0.00 | 0.00 | 39 | 1005.4 |
| 20260505224520 | 26 | 158 | 11.3 | 17.7 | 0.00 | 0.00 | 0.00 | 39 | 1005.3 |
| 20260505223520 | 26 | 203 | 11.3 | 24.1 | 0.00 | 0.00 | 0.00 | 39 | 1005.3 |
| 20260505222520 | 26 | 180 | 11.3 | 22.5 | 0.00 | 0.00 | 0.00 | 39 | 1005.1 |
| 20260505221520 | 26 | 203 | 11.3 | 25.7 | 0.00 | 0.00 | 0.00 | 38 | 1005.2 |
| 20260505220520 | 26 | 180 | 11.3 | 19.3 | 0.00 | 0.00 | 0.00 | 38 | 1005.3 |
| 20260505215519 | 27 | 225 | 8.0 | 19.3 | 0.00 | 0.00 | 0.00 | 36 | 1005.3 |
| 20260505214734 | 27 | 158 | 9.7 | 17.7 | 0.00 | 0.00 | 0.00 | 40 | 1005.4 |
| 20260505213519 | 26 | 158 | 11.3 | 24.1 | 0.00 | 0.00 | 0.00 | 38 | 1005.2 |
| 20260505212520 | 26 | 180 | 12.9 | 32.2 | 0.00 | 0.00 | 0.00 | 38 | 1005.2 |
| 20260505211520 | 27 | 180 | 9.7 | 19.3 | 0.00 | 0.00 | 0.00 | 36 | 1005.2 |
| 20260505210520 | 27 | 225 | 12.9 | 24.1 | 0.00 | 0.00 | 0.00 | 34 | 1005.2 |
| 20260505205520 | 27 | 203 | 11.3 | 27.4 | 0.00 | 0.00 | 0.00 | 34 | 1005.2 |
| 20260505204520 | 27 | 225 | 11.3 | 20.9 | 0.00 | 0.00 | 0.00 | 34 | 1005.1 |
| 20260505203520 | 27 | 225 | 11.3 | 24.1 | 0.00 | 0.00 | 0.00 | 35 | 1005.2 |
| 20260505202520 | 27 | 180 | 11.3 | 24.1 | 0.00 | 0.00 | 0.00 | 34 | 1005.3 |
| 20260505201520 | 27 | 225 | 11.3 | 25.7 | 0.00 | 0.00 | 0.00 | 34 | 1005.4 |
| 20260505200520 | 27 | 203 | 11.3 | 25.7 | 0.00 | 0.00 | 0.00 | 34 | 1005.4 |
| 20260505195734 | 27 | 203 | 14.5 | 29.0 | 0.00 | 0.00 | 0.00 | 35 | 1005.6 |
| 20260505194520 | 27 | 225 | 14.5 | 30.6 | 0.00 | 0.00 | 0.00 | 34 | 1005.6 |
| 20260505193520 | 27 | 225 | 9.7 | 17.7 | 0.00 | 0.00 | 0.00 | 37 | 1005.7 |
| 20260505192520 | 27 | 203 | 14.5 | 27.4 | 0.00 | 0.00 | 0.00 | 36 | 1005.7 |
| 20260505191520 | 27 | 203 | 14.5 | 27.4 | 0.00 | 0.00 | 0.00 | 35 | 1005.6 |
| 20260505190521 | 27 | 203 | 9.7 | 17.7 | 0.00 | 0.00 | 0.00 | 37 | 1005.8 |
| 20260505185520 | 27 | 203 | 12.9 | 24.1 | 0.00 | 0.00 | 0.00 | 36 | 1006.0 |
| 20260505184520 | 27 | 225 | 12.9 | 30.6 | 0.00 | 0.00 | 0.00 | 35 | 1006.3 |
| 20260505183520 | 27 | 203 | 12.9 | 30.6 | 0.00 | 0.00 | 0.00 | 36 | 1006.3 |
| 20260505182520 | 27 | 203 | 14.5 | 38.6 | 0.00 | 0.00 | 0.00 | 36 | 1006.5 |
| 20260505181520 | 26 | 203 | 11.3 | 19.3 | 0.00 | 0.00 | 0.00 | 38 | 1006.6 |
| 20260505180520 | 26 | 203 | 12.9 | 30.6 | 0.00 | 0.00 | 0.00 | 37 | 1006.8 |
| 20260505175520 | 27 | 203 | 11.3 | 33.8 | 0.00 | 0.00 | 0.00 | 36 | 1006.6 |
| 20260505174520 | 26 | 203 | 11.3 | 30.6 | 0.00 | 0.00 | 0.00 | 38 | 1006.8 |
| 20260505173520 | 26 | 248 | 14.5 | 38.6 | 0.00 | 0.00 | 0.00 | 38 | 1006.7 |
| 20260505172520 | 26 | 270 | 14.5 | 27.4 | 0.00 | 0.00 | 0.00 | 38 | 1006.9 |
| 20260505171520 | 26 | 225 | 12.9 | 27.4 | 0.00 | 0.00 | 0.00 | 39 | 1007.0 |
| 20260505170520 | 25 | 203 | 9.7 | 19.3 | 0.00 | 0.00 | 0.00 | 43 | 1007.0 |
| 20260505165520 | 26 | 225 | 11.3 | 25.7 | 0.00 | 0.00 | 0.00 | 42 | 1007.3 |
| 20260505164520 | 25 | 225 | 9.7 | 24.1 | 0.00 | 0.00 | 0.00 | 47 | 1007.7 |
| 20260505163733 | 25 | 225 | 12.9 | 22.5 | 0.00 | 0.00 | 0.00 | 44 | 1008.0 |
| 20260505162520 | 25 | 225 | 11.3 | 22.5 | 0.00 | 0.00 | 0.00 | 45 | 1008.0 |
| 20260505161520 | 25 | 225 | 9.7 | 22.5 | 0.00 | 0.00 | 0.00 | 46 | 1008.1 |
| 20260505160520 | 25 | 225 | 11.3 | 25.7 | 0.00 | 0.00 | 0.00 | 47 | 1008.2 |
| 20260505152520 | 23 | 225 | 11.3 | 27.4 | 0.00 | 0.00 | 0.00 | 49 | 1008.1 |
| 20260505151518 | 23 | 203 | 11.3 | 29.0 | 0.00 | 0.00 | 0.00 | 49 | 1008.4 |
| 20260505150520 | 23 | 225 | 9.7 | 20.9 | 0.00 | 0.00 | 0.00 | 50 | 1008.2 |
| 20260505140520 | 21 | 158 | 4.8 | 11.3 | 0.00 | 0.00 | 0.00 | 60 | 1008.7 |
| 20260505124520 | 18 | 158 | 4.8 | 11.3 | 0.00 | 0.00 | 0.00 | 62 | 1008.8 |
| 20260505123518 | 18 | 158 | 6.4 | 12.9 | 0.00 | 0.00 | 0.00 | 61 | 1009.0 |
| 20260505122520 | 18 | 113 | 1.6 | 3.2 | 0.00 | 0.00 | 0.00 | 61 | 1008.9 |
| 20260505121732 | 18 | 113 | 3.2 | 6.4 | 0.00 | 0.00 | 0.00 | 61 | 1008.9 |
| 20260505120519 | 18 | 113 | 4.8 | 8.0 | 0.00 | 0.00 | 0.00 | 61 | 1008.8 |
| 20260505115520 | 17 | 293 | 3.2 | 11.3 | 0.00 | 0.00 | 0.00 | 61 | 1008.7 |
| 20260505114520 | 16 | 0.0 | 3.2 | 0.00 | 0.00 | 0.00 | 60 | 1008.7 | |
| 20260505113518 | 17 | 293 | 1.6 | 6.4 | 0.00 | 0.00 | 0.00 | 61 | 1008.7 |
| 20260505112518 | 17 | 293 | 1.6 | 4.8 | 0.00 | 0.00 | 0.00 | 61 | 1008.7 |
| 20260505111520 | 17 | 293 | 1.6 | 3.2 | 0.00 | 0.00 | 0.00 | 58 | 1008.5 |
| 20260505110729 | 17 | 293 | 1.6 | 3.2 | 0.00 | 0.00 | 0.00 | 58 | 1008.3 |
| 20260505101728 | 13 | 90 | 4.8 | 9.7 | 0.00 | 0.00 | 0.00 | 23 | 1008.2 |
| 20260505100519 | 13 | 90 | 1.6 | 4.8 | 0.00 | 0.00 | 0.00 | 23 | 1007.8 |
| 20260505095520 | 13 | 90 | 1.6 | 3.2 | 0.00 | 0.00 | 0.00 | 40 | 1007.7 |
| 20260505094731 | 15 | 0.0 | 3.2 | 0.00 | 0.00 | 0.00 | 49 | 1007.8 | |
| 20260505093519 | 15 | 158 | 1.6 | 6.4 | 0.00 | 0.00 | 0.00 | 46 | 1007.6 |
| 20260505092519 | 14 | 158 | 1.6 | 4.8 | 0.00 | 0.00 | 0.00 | 44 | 1007.7 |
| 20260505091520 | 15 | 158 | 1.6 | 4.8 | 0.00 | 0.00 | 0.00 | 49 | 1007.8 |
| 20260505090730 | 15 | 0.0 | 3.2 | 0.00 | 0.00 | 0.00 | 49 | 1007.8 | |
| 20260505085518 | 15 | 180 | 3.2 | 6.4 | 0.00 | 0.00 | 0.00 | 46 | 1007.9 |
| 20260505084518 | 14 | 0.0 | 1.6 | 0.00 | 0.00 | 0.00 | 46 | 1007.9 | |
| 20260505083733 | 15 | 0.0 | 3.2 | 0.00 | 0.00 | 0.00 | 48 | 1007.7 | |
| 20260505082518 | 15 | 0.0 | 3.2 | 0.00 | 0.00 | 0.00 | 53 | 1007.6 | |
| 20260505081518 | 15 | 203 | 1.6 | 3.2 | 0.00 | 0.00 | 0.00 | 54 | 1007.7 |
| 20260505080519 | 15 | 203 | 1.6 | 4.8 | 0.00 | 0.00 | 0.00 | 54 | 1007.7 |
| 20260505075519 | 15 | 203 | 1.6 | 6.4 | 0.00 | 0.00 | 0.00 | 51 | 1007.5 |